Погода в Коростыни

Россия / Новгородская область     58°11′10″N   30°59′14″E
темп.,
°C
ветер,
м/с
пор.,
м/с
влажн.,
%
обл.,
%
осадки,
мм/ч
давл.,
гПа
погр.,
м
31 июля, сб
сб3100:00+17ю4866100 0.0 1000181
03:00+17юз61258100 0.0 999960
06:00+16юз7127426 0.3 998951
09:00+18зюз8117432 0.3 9981139
12:00+22з812470 0.1 9991592
15:00+24з61045100 0.1 10001580
18:00+21зюз710675 0.3 1002679
21:00+18зюз510905 1.4 1003351
1 августа, вс
вс100:00+16юз5109512 0.1 1004266
03:00+16юз479397 0.1 1005158
06:00+16ююз4989100 0.0 1004224
09:00+18ююз5108298 0.0 1004407
12:00+23юз46611 0.6 1003970
15:00+23юз595399 0.8 1003511
18:00+23зюз61052100 0.0 1003599
21:00+19з3669100 0.0 1004105
2 августа, пн
пн200:00+17юз3675100 0.0 1006135
03:00+16зюз3680100 0.1 1006155
06:00+16юз3484100 0.0 1006114
09:00+20ююз2469100 0.0 1006366
12:00+18ю2382100 0.7 1005305
15:00+16всв4695100 8.5 1001432
18:00+15с6897100 26.7 1000352
21:00+15сз4795100 27.8 1001343
3 августа, вт
вт300:00+15з4796100 0.0 1001252
03:00+15зюз5995100 0.0 1002294
06:00+14зюз51193100 0.0 1002352
09:00+16зюз5982100 0.0 1003598
12:00+19з576142 0.3 10041531
15:00+21зсз575484 0.4 10051342
18:00+20з585787 0.0 10061100
21:00+15зсз488044 0.1 1008417
4 августа, ср
ср400:00+13з46875 0.0 1010132
03:00+11з47852 0.0 1011149
06:00+11з468825 0.0 1013155
09:00+16з34685 0.0 1014443
12:00+19з234773 0.0 10151871
15:00+19св2254100 0.0 1016508
18:00+19в225289 0.0 1016275
21:00+18вюв235787 0.0 1016190